Weather History for KGYL - March, 2013

Change the Weather History Date:

Saturday, March 2, 2013

  Actual Average (KHCD) Record (KHCD)
Temperature  
Mean Temperature 12 °F -  
Max Temperature 24 °F 35 °F 60 °F (1990)
Min Temperature 0 °F 15 °F -19 °F (2014)
Degree Days  
Heating Degree Days 53    
Moisture  
Dew Point 9 °F    
Average Humidity 77    
Maximum Humidity 91    
Minimum Humidity 64    
Precipitation  
Precipitation 0.00 in - - ()
Sea Level Pressure  
Sea Level Pressure 30.26 in    
Wind  
Wind Speed 3 mph (NE)    
Max Wind Speed 7 mph    
Max Gust Speed -    
Visibility 10 miles    
Events      
Averages and records for this station are not official NWS values.
T = Trace of Precipitation, MM = Missing Value Source: NWS Daily Summary

Daily Weather History Graph

Daily Weather History Graph

Search for Another Location

Airport or City:

Trip Planner

Search our weather history database for the weather conditions in past years. The results will help you decide how hot, cold, wet, or windy it might be!

Date:

Astronomy

Mar. 02, 2013 Rise Set
Actual Time 6:51 AM CST 6:05 PM CST
Civil Twilight 6:22 AM CST 6:35 PM CST
Nautical Twilight 5:48 AM CST 7:08 PM CST
Astronomical Twilight 5:14 AM CST 7:42 PM CST
Moon No Moon Rise 9:05 AM CST (3/2)
Length of Visible Light 12h 12m
Length of Day
11h 14m
Waning Gibbous, 74% of the Moon is Illuminated
Mar 2
Waning Gibbous
Mar 4
Last Quarter
Mar 11
New
Mar 19
First Quarter
Mar 27
Full

Hourly Weather History & Observations

Time (CST) Temp. Windchill Dew Point Humidity Pressure Visibility Wind Dir Wind Speed Gust Speed Precip Events Conditions
12:16 AM 9.9 °F 0.2 °F 6.3 °F 85% 30.32 in 10.0 mi NNW 5.8 mph - N/A   Clear
12:36 AM 10.0 °F 3.6 °F 6.6 °F 86% 30.32 in 10.0 mi North 3.5 mph - N/A   Clear
12:56 AM 7.2 °F -1.5 °F 3.9 °F 87% 30.32 in 10.0 mi NNW 4.6 mph - N/A   Clear
1:16 AM 8.2 °F -0.3 °F 5.4 °F 88% 30.32 in 10.0 mi NNW 4.6 mph - N/A   Clear
1:36 AM 6.1 °F -0.9 °F 3.2 °F 88% 30.32 in 10.0 mi NNW 3.5 mph - N/A   Clear
1:56 AM 5.0 °F -4.1 °F 1.8 °F 86% 30.32 in 10.0 mi NNW 4.6 mph - N/A   Clear
2:16 AM 5.9 °F -3.0 °F 3.2 °F 89% 30.32 in 10.0 mi NW 4.6 mph - N/A   Clear
2:36 AM 7.0 °F -1.7 °F 4.1 °F 88% 30.32 in 10.0 mi NNW 4.6 mph - N/A   Clear
2:56 AM 5.9 °F -4.5 °F 3.2 °F 89% 30.32 in 10.0 mi NNW 5.8 mph - N/A   Clear
3:16 AM 5.9 °F -3.0 °F 2.8 °F 87% 30.31 in 10.0 mi NNW 4.6 mph - N/A   Clear
3:36 AM 5.0 °F -5.6 °F 2.7 °F 90% 30.32 in 10.0 mi NNW 5.8 mph - N/A   Clear
3:56 AM 5.2 °F -6.7 °F 2.7 °F 89% 30.32 in 10.0 mi NNW 6.9 mph - N/A   Clear
4:16 AM 4.6 °F -6.0 °F 1.8 °F 88% 30.32 in 10.0 mi NNW 5.8 mph - N/A   Clear
4:36 AM 4.3 °F -2.9 °F 1.8 °F 89% 30.31 in 10.0 mi NNE 3.5 mph - N/A   Clear
5:16 AM 3.9 °F - 1.4 °F 89% 30.31 in 10.0 mi Calm Calm - N/A   Clear
6:17 AM 1.6 °F -6.0 °F -1.3 °F 88% 30.32 in 10.0 mi NNW 3.5 mph - N/A   Clear
6:36 AM 0.7 °F -7.1 °F -2.4 °F 87% 30.32 in 10.0 mi North 3.5 mph - N/A   Clear
6:56 AM 1.0 °F -6.7 °F -2.0 °F 87% 30.32 in 10.0 mi NNE 3.5 mph - N/A   Clear
7:16 AM 1.9 °F - -1.1 °F 87% 30.32 in 10.0 mi Calm Calm - N/A   Clear
7:36 AM 1.6 °F - -1.5 °F 87% 30.33 in 10.0 mi Calm Calm - N/A   Clear
7:56 AM 2.5 °F - -0.6 °F 87% 30.32 in 10.0 mi Calm Calm - N/A   Clear
8:16 AM 5.2 °F - 2.5 °F 89% 30.32 in 7.0 mi Calm Calm - N/A   Clear
8:36 AM 8.4 °F 1.8 °F 6.3 °F 91% 30.32 in 10.0 mi NE 3.5 mph - N/A   Clear
8:56 AM 9.9 °F - 7.3 °F 90% 30.31 in 10.0 mi Calm Calm - N/A   Clear
9:15 AM 11.8 °F - 8.8 °F 88% 30.31 in 10.0 mi Calm Calm - N/A   Clear
9:36 AM 13.6 °F 7.7 °F 9.7 °F 84% 30.31 in 10.0 mi East 3.5 mph - N/A   Clear
9:56 AM 14.9 °F - 10.0 °F 81% 30.30 in 10.0 mi Calm Calm - N/A   Clear
10:17 AM 16.0 °F - 10.0 °F 77% 30.30 in 10.0 mi Calm Calm - N/A   Clear
10:36 AM 16.7 °F 11.2 °F 10.4 °F 76% 30.30 in 10.0 mi SE 3.5 mph - N/A   Clear
10:56 AM 17.4 °F - 10.4 °F 74% 30.30 in 10.0 mi Calm Calm - N/A   Clear
11:16 AM 18.3 °F - 11.3 °F 74% 30.30 in 10.0 mi Calm Calm - N/A   Clear
11:36 AM 19.2 °F - 11.7 °F 72% 30.30 in 10.0 mi Calm Calm - N/A   Clear
11:56 AM 19.4 °F - 12.2 °F 74% 30.29 in 10.0 mi Calm Calm - N/A   Clear
12:17 PM 20.8 °F - 12.7 °F 71% 30.28 in 10.0 mi Calm Calm - N/A   Clear
12:36 PM 21.4 °F - 13.5 °F 72% 30.27 in 10.0 mi Calm Calm - N/A   Clear
12:56 PM 21.0 °F 16.2 °F 13.5 °F 73% 30.27 in 10.0 mi WSW 3.5 mph - N/A   Clear
1:16 PM 20.3 °F - 13.3 °F 74% 30.26 in 10.0 mi Calm Calm - N/A   Clear
1:36 PM 21.2 °F - 13.1 °F 71% 30.25 in 10.0 mi Calm Calm - N/A   Clear
1:56 PM 23.4 °F - 13.8 °F 67% 30.24 in 10.0 mi Calm Calm - N/A   Clear
2:16 PM 23.9 °F - 14.0 °F 66% 30.24 in 10.0 mi Calm Calm - N/A   Clear
2:36 PM 24.8 °F 20.5 °F 14.2 °F 64% 30.23 in 10.0 mi ESE 3.5 mph - N/A   Clear
2:56 PM 24.3 °F 18.4 °F 13.8 °F 64% 30.23 in 10.0 mi East 4.6 mph - N/A   Clear
3:16 PM 24.3 °F - 13.8 °F 64% 30.23 in 10.0 mi Calm Calm - N/A   Clear
3:36 PM 24.6 °F - 14.2 °F 65% 30.22 in 10.0 mi Calm Calm - N/A   Clear
3:56 PM 24.6 °F - 14.2 °F 65% 30.21 in 10.0 mi Calm Calm - N/A   Clear
4:16 PM 24.3 °F 19.9 °F 13.8 °F 64% 30.21 in 10.0 mi East 3.5 mph - N/A   Clear
4:36 PM 23.9 °F - 13.6 °F 65% 30.21 in 10.0 mi Calm Calm - N/A   Clear
4:56 PM 22.8 °F 18.2 °F 13.6 °F 68% 30.20 in 10.0 mi East 3.5 mph - N/A   Clear
5:16 PM 22.1 °F - 13.1 °F 68% 30.20 in 10.0 mi Calm Calm - N/A   Mostly Cloudy
5:36 PM 22.3 °F - 13.3 °F 68% 30.19 in 10.0 mi Calm Calm - N/A   Overcast
5:56 PM 22.1 °F - 13.6 °F 70% 30.20 in 10.0 mi Calm Calm - N/A   Overcast
6:16 PM 21.7 °F - 13.8 °F 72% 30.20 in 10.0 mi Calm Calm - N/A   Overcast
6:36 PM 21.4 °F - 13.8 °F 73% 30.19 in 10.0 mi Calm Calm - N/A   Overcast
6:56 PM 20.7 °F - 14.0 °F 75% 30.19 in 10.0 mi Calm Calm - N/A   Overcast
7:16 PM 20.5 °F - 14.9 °F 79% 30.20 in 10.0 mi Calm Calm - N/A   Overcast
7:36 PM 21.2 °F 16.4 °F 14.0 °F 74% 30.19 in 10.0 mi East 3.5 mph - N/A   Overcast
7:56 PM 21.4 °F 15.1 °F 13.8 °F 73% 30.18 in 10.0 mi ESE 4.6 mph - N/A   Overcast
8:16 PM 21.2 °F - 12.6 °F 69% 30.19 in 10.0 mi Calm Calm - N/A   Overcast
8:36 PM 21.7 °F 17.0 °F 12.4 °F 67% 30.18 in 10.0 mi SSE 3.5 mph - N/A   Overcast
8:56 PM 21.9 °F - 12.6 °F 67% 30.18 in 10.0 mi Calm Calm - N/A   Overcast
9:16 PM 21.6 °F 15.3 °F 13.8 °F 72% 30.17 in 10.0 mi SSE 4.6 mph - N/A   Overcast
9:36 PM 21.7 °F - 12.9 °F 69% 30.17 in 10.0 mi Calm Calm - N/A   Overcast
9:56 PM 21.6 °F 15.3 °F 13.1 °F 70% 30.17 in 10.0 mi ESE 4.6 mph - N/A   Overcast
10:16 PM 21.2 °F 14.9 °F 13.8 °F 73% 30.16 in 10.0 mi SSE 4.6 mph - N/A   Overcast
10:37 PM 21.6 °F - 13.3 °F 70% 30.16 in 10.0 mi Calm Calm - N/A   Overcast
10:56 PM 21.6 °F - 14.0 °F 73% 30.16 in 10.0 mi Calm Calm - N/A   Overcast
11:16 PM 21.0 °F 16.2 °F 14.7 °F 77% 30.15 in 10.0 mi East 3.5 mph - N/A   Overcast
11:37 PM 21.2 °F 14.9 °F 14.7 °F 76% 30.15 in 10.0 mi East 4.6 mph - N/A   Overcast
11:56 PM 21.4 °F 13.8 °F 14.7 °F 75% 30.14 in 10.0 mi East 5.8 mph - N/A   Overcast